SCP
0 0 0 0 0 0 0 0 0 0 0 0 0 0 0 0 0 0 0 0 0 0 0 0 0 0 0 0 0 0 0 0 0 0 0 0 0 0 0 0 0 0 0 0
0 0 0 0 0 0 0 0 0 0 0 0 0 0 0 0 0 0 0 0 0 0 0 0 0 0 0 0 0 0 0 0 0 0 0 0 0 0 0 0 0 0 0 0
0 0 0 0 0 0 0 0 0 0 0 0 0 0 0 0 0 0 0 0 0 0 0 0 0 0 0 0 0 0 0 0 0 0 0 0 0 0 0 0 0 0 0 0
0 0 0 0 0 0 0 0 0 0 0 0 0 0 0 0 0 0 0 0 0 0 0 0 0 0 0 0 0 0 0 0 0 0 0 0 0 0 0 0 0 0 0 0
0 0 0 0 0 0 0 0 0 0 0 0 0 0 0 0 0 0 0 0 0 0 0 0 0 0 0 0 0 0 0 0 0 0 0 0 0 0 0 0 0 0 0 0
0 0 0 0 0 0 0 0 0 0 0 0 0 0 0 0 0 0 0 0 0 0 0 0 0 0 0 0 0 0 0 0 0 0 0 0 0 0 0 0 0 0 0 0
0 0 0 0 0 0 0 0 0 0 0 0 0 0 0 0 0 0 0 0 0 0 0 0 0 0 0 0 0 0 0 0 0 0 0 0 0 0 0 0 0 0 0 0
0 0 0 0 0 0 0 0 0 0 0 0 0 0 0 0 0 0 0 0 0 0 0 0 0 0 0 0 0 0 0 0 0 0 0 0 0 0 0 0 0 0 0 0
0 0 0 0 0 0 0 0 0 0 0 0 0 0 0 0 0 0 0 0 0 0 0 0 0 0 0 0 0 0 0 0 0 0 0 0 0 0 0 0 0 0 0 0
0 0 0 0 0 0 0 0 0 0 0 0 0 0 0 0 0 0 0 0 0 0 0 0 0 0 0 0 0 0 0 0 0 0 0 0 0 0 0 0 0 0 0 0
0 0 0 0 0 0 0 0 0 0 0 0 0 0 0 0 0 0 0 0 0 0 0 0 0 0 0 0 0 0 0 0 0 0 0 0 0 0 0 0 0 0 0 0
0 0 0 0 0 0 0 0 0 0 0 0 0 0 0 0 0 0 0 0 0 0 0 0 0 0 0 0 0 0 0 0 0 0 0 0 0 0 0 0 0 0 0 0
0 0 0 0 0 0 0 0 0 0 0 0 0 0 0 0 0 0 0 0 0 0 0 0 0 0 0 0 0 0 0 0 0 0 0 0 0 0 0 0 0 0 0 0
0 0 0 0 0 0 0 0 0 0 0 0 0 0 0 0 0 0 0 0 0 0 0 0 0 0 0 0 0 0 0 0 0 0 0 0 0 0 0 0 0 0 0 0
0 0 0 0 0 0 0 0 0 0 0 0 0 0 0 0 0 0 0 0 0 0 0 0 0 0 0 0 0 0 0 0 0 0 0 0 0 0 0 0 0 0 0 0
0 0 0 0 0 0 0 0 0 0 0 0 0 0 0 0 0 0 0 0 0 0 0 0 0 0 0 0 0 0 0 0 0 0 0 0 0 0 0 0 0 0 0 0
0 0 0 0 0 0 0 0 0 0 0 0 0 0 0 0 0 0 0 0 0 0 0 0 0 0 0 0 0 0 0 0 0 0 0 0 0 0 0 0 0 0 0 0
0 0 0 0 0 0 0 0 0 0 0 0 0 0 0 0 0 0 0 0 0 0 0 0 0 0 0 0 0 0 0 0 0 0 0 0 0 0 0 0 0 0 0 0
0 0 0 0 0 0 0 0 0 0 0 0 0 0 0 0 0 0 0 0 0 0 0 0 0 0 0 0 0 0 0 0 0 0 0 0 0 0 0 0 0 0 0 0
0 0 0 0 0 0 0 0 0 0 0 0 0 0 0 0 0 0 0 0 0 0 0 0 0 0 0 0 0 0 0 0 0 0 0 0 0 0 0 0 0 0 0 0
0 0 0 0 0 0 0 0 0 0 0 0 0 0 0 0 0 0 0 0 0 0 0 0 0 0 0 0 0 0 0 0 0 0 0 0 0 0 0 0 0 0 0 0
0 0 0 0 0 0 0 0 0 0 0 0 0 0 0 0 0 0 0 0 0 0 0 0 0 0 0 0 0 0 0 0 0 0 0 0 0 0 0 0 0 0 0 0
0 0 0 0 0 0 0 0 0 0 0 0 0 0 0 0 0 0 0 0 0 0 0 0 0 0 0 0 0 0 0 0 0 0 0 0 0 0 0 0 0 0 0 0
0 0 0 0 0 0 0 0 0 0 0 0 0 0 0 0 0 0 0 0 0 0 0 0 0 0 0 0 0 0 0 0 0 0 0 0 0 0 0 0 0 0 0 0
0 0 0 0 0 0 0 0 0 0 0 0 0 0 0 0 0 0 0 0 0 0 0 0 0 0 0 0 0 0 0 0 0 0 0 0 0 0 0 0 0 0 0 0
0 0 0 0 0 0 0 0 0 0 0 0 0 0 0 -0 -0 0 0 0 0 0 0 0 0 0 0 0 0 0 0 0 0 0 0 0 0 0 0 0 0 0 0 0
0 0 0 0 0 0 0 0 0 0 0 0 0 0 0 -0 -0 -0 0 0 0 0 0 0 0 0 0 0 0 0 0 0 0 0 0 0 0 0 0 0 0 0 0 0
Wind_Speed
3 1 6 8 8 9 8 4 3 2 1 2 3 2 3 4 6 5 4 5 6 6 7 7 8 8 8 9 9 9 8 9 10 10 9 9 9 9 9 9 9 8 8 8
5 4 9 10 9 7 6 5 2 2 1 2 3 3 5 6 7 5 6 7 8 9 9 9 9 9 9 9 10 9 9 10 10 9 9 9 9 9 8 8 8 7 8 8
5 7 4 6 6 5 4 3 3 1 3 5 5 6 7 8 7 7 9 10 10 9 9 10 10 10 10 10 9 8 9 9 9 9 9 9 9 8 8 8 8 8 8 8
1 6 3 2 1 4 3 3 3 1 4 5 6 7 6 7 7 9 10 10 10 10 10 9 9 9 9 9 8 8 9 9 8 8 9 8 8 8 8 7 7 7 8 8
3 2 1 0 3 3 2 2 1 3 5 7 7 6 6 8 8 10 11 11 11 10 10 9 9 9 8 8 8 8 8 8 8 7 7 7 7 8 7 6 7 7 7 8
3 1 3 3 3 3 1 3 2 4 6 7 7 7 7 8 10 10 11 9 9 9 8 8 9 8 8 8 8 8 8 8 7 7 7 7 8 8 7 6 7 7 7 7
2 1 3 4 4 4 3 7 5 4 6 6 5 7 10 11 10 9 9 10 9 8 7 8 9 8 9 9 9 9 9 8 8 8 8 8 8 8 7 7 6 7 7 7
2 1 5 3 3 2 5 5 5 5 5 6 8 10 9 10 9 10 9 9 8 8 9 10 10 10 11 12 11 10 10 10 9 9 9 9 7 7 7 6 6 6 6 6
6 5 5 1 3 4 4 3 4 5 7 7 8 8 9 8 8 8 9 9 9 10 12 11 10 10 13 13 12 12 11 11 10 10 9 8 8 8 6 6 5 5 5 5
3 2 3 2 1 1 1 2 4 5 6 7 7 9 8 8 8 9 9 10 10 11 14 14 13 13 13 14 12 12 12 11 10 9 9 8 7 6 6 6 5 5 5 5
1 1 0 2 3 2 3 4 5 6 6 7 7 7 7 8 9 9 9 9 10 13 15 16 15 15 14 13 12 12 11 10 10 9 8 7 6 6 7 6 7 6 5 5
5 6 4 4 4 2 4 5 5 6 7 7 6 7 7 8 8 9 12 12 13 14 15 16 16 16 14 12 11 11 10 9 7 6 5 5 5 6 8 8 9 11 10 7
6 5 5 2 1 2 3 5 5 6 6 7 7 6 7 8 9 11 13 14 14 15 16 16 16 15 14 12 11 10 9 8 6 5 5 4 4 4 3 3 3 5 7 8
5 4 2 0 1 3 3 5 5 6 6 6 6 7 8 9 11 13 14 14 15 15 16 15 15 15 14 13 11 10 8 9 7 4 4 4 3 3 3 2 1 1 1 4
4 5 4 2 2 3 4 4 5 6 7 7 6 7 9 11 12 14 14 14 15 15 15 15 15 15 14 13 11 9 7 5 4 3 3 3 3 2 2 2 2 3 3 3
5 4 4 3 3 3 4 4 5 6 7 7 6 8 10 11 12 13 14 14 15 16 16 15 15 15 15 13 11 8 5 8 6 2 1 1 1 2 2 2 3 4 4 4
5 3 2 1 2 2 3 4 4 6 6 7 7 9 10 11 12 13 14 15 14 14 13 13 15 16 14 12 10 7 5 5 7 3 1 1 1 2 2 2 3 4 4 6
7 6 5 4 2 1 3 4 5 6 6 6 8 9 10 11 12 14 15 15 15 14 13 14 16 16 13 11 8 6 5 4 2 2 1 0 1 2 2 2 3 4 4 5
8 7 5 4 3 1 2 4 5 5 5 6 7 9 9 10 11 12 13 14 14 14 16 17 21 15 13 13 12 5 5 4 3 1 1 0 1 2 2 3 3 4 5 5
7 6 5 4 2 1 2 4 5 4 5 5 7 8 10 11 11 12 13 11 10 11 16 18 17 13 12 11 13 6 4 3 2 2 1 1 2 2 3 3 4 4 5 4
7 6 5 3 1 2 3 4 4 4 5 6 6 8 9 10 10 11 12 11 13 15 18 17 13 12 12 12 10 5 4 2 1 1 2 2 3 3 3 4 4 4 4 4
6 5 4 3 1 2 4 3 2 3 5 5 6 7 9 10 11 11 10 8 12 18 15 11 11 16 18 14 6 5 4 2 1 1 2 2 3 3 3 3 4 4 4 4
6 5 4 3 2 3 3 2 2 2 3 5 6 7 8 8 7 9 11 11 12 18 14 11 18 23 21 10 7 6 5 4 3 2 2 2 2 2 3 3 3 4 4 4
6 6 5 4 2 0 1 2 2 2 3 4 5 5 6 7 7 6 7 12 16 17 12 13 20 22 17 9 8 7 6 4 3 3 2 2 2 2 3 3 3 3 3 4
7 6 5 4 2 2 2 1 1 2 3 3 5 6 5 4 6 8 9 11 15 15 12 14 19 19 13 10 10 8 7 6 4 3 3 2 2 2 2 2 3 3 3 3
7 5 5 5 4 3 2 1 1 1 2 3 4 4 5 5 7 7 8 10 13 14 11 11 12 13 11 11 11 10 9 7 7 5 4 4 3 3 2 2 3 3 3 3
6 5 3 3 3 3 3 2 1 0 1 1 3 4 5 6 7 8 10 10 10 10 10 10 10 11 11 11 10 10 9 8 8 6 6 5 4 3 3 3 3 2 2 2
Wind_Direction
286 354 76 70 64 65 74 88 103 321 19 360 343 331 319 313 309 313 319 313 296 279 267 262 261 259 254 252 250 246 242 241 241 242 241 241 242 242 241 240 243 242 245 249
352 72 92 66 45 49 56 49 36 46 59 318 314 332 327 319 313 305 296 291 284 279 273 268 264 262 258 254 252 246 242 243 243 242 242 241 241 241 240 239 239 238 239 242
328 326 73 30 16 38 34 23 57 68 290 306 324 324 310 305 297 289 290 291 287 280 269 265 263 261 260 258 256 251 247 247 246 243 241 240 243 241 236 237 236 236 237 236
349 19 35 231 20 57 77 82 74 28 297 300 292 286 284 291 289 290 291 290 286 279 275 271 268 269 267 265 262 258 255 254 252 246 245 243 241 238 238 236 234 236 238 238
85 17 185 270 8 7 324 237 42 334 318 313 304 310 294 281 281 283 286 286 285 281 282 284 286 286 286 284 279 272 266 261 258 254 251 249 247 244 241 236 235 235 236 236
80 31 261 252 300 295 5 269 313 351 325 309 323 325 288 285 288 288 290 293 294 297 300 303 301 302 301 295 288 281 277 272 265 257 251 248 246 246 243 234 235 238 243 238
87 270 263 264 303 37 57 274 295 302 298 299 294 267 277 296 298 298 301 302 305 308 308 299 297 299 294 288 282 280 280 278 272 264 257 253 249 246 242 239 239 239 244 246
104 19 273 309 42 79 239 256 282 291 293 293 286 286 294 303 307 312 313 312 313 310 304 299 297 297 293 289 286 282 280 277 273 267 266 272 253 249 241 235 238 242 244 252
173 202 223 136 143 201 218 265 285 291 299 300 303 302 308 311 314 313 312 310 307 305 305 303 299 295 294 293 291 288 284 279 275 270 262 259 253 249 245 235 232 234 231 239
109 162 168 144 140 324 322 306 303 308 310 316 311 312 318 317 315 315 311 309 310 311 312 310 307 301 295 293 290 286 283 280 275 269 262 255 249 243 238 231 227 227 227 231
143 239 318 336 339 332 344 344 336 327 319 321 322 322 319 316 316 314 313 312 315 315 313 312 311 307 303 300 295 290 284 280 276 269 262 257 249 241 235 229 219 215 219 212
208 221 197 256 282 350 7 342 330 331 327 327 329 320 320 318 314 316 319 320 320 317 315 314 313 310 307 303 296 291 287 282 276 267 260 254 252 262 249 239 238 232 225 212
173 179 177 222 350 9 351 337 336 336 332 329 325 321 323 319 318 321 322 322 321 319 317 315 314 312 311 309 303 295 289 286 280 268 260 255 248 246 261 270 253 243 227 210
156 142 126 51 325 346 351 342 342 338 331 325 320 323 324 320 320 324 324 323 320 319 318 317 317 317 318 316 310 303 296 291 288 267 256 250 245 235 223 218 201 92 94 168
146 139 154 149 32 6 354 348 348 335 325 324 323 325 325 325 324 324 324 324 323 321 321 321 322 322 322 321 317 310 306 298 288 271 254 239 232 222 210 197 168 136 107 93
135 115 103 72 26 360 354 352 342 326 323 323 326 323 323 321 321 323 326 328 327 324 322 324 325 325 324 324 323 320 312 320 322 294 272 238 213 199 184 167 155 145 146 148
136 143 125 66 16 1 350 337 327 320 320 324 321 319 323 325 326 329 330 329 324 319 320 326 328 326 325 325 325 323 321 323 336 335 317 257 192 170 163 157 153 149 156 168
149 154 151 142 130 5 341 333 325 321 318 315 318 324 328 330 329 328 328 328 327 327 331 333 331 328 325 326 327 323 322 321 319 322 323 299 147 145 147 147 143 142 139 151
135 132 126 113 104 68 333 316 312 314 317 320 324 326 325 325 325 325 328 329 332 334 334 331 327 327 324 324 329 321 321 323 327 321 330 104 124 135 136 131 130 134 137 141
135 133 124 108 86 47 318 308 315 321 319 320 327 329 331 330 330 330 330 328 331 332 328 325 326 327 325 322 325 318 317 325 345 4 36 74 98 116 125 128 129 130 133 141
144 139 129 119 80 327 312 312 318 321 319 326 333 329 326 326 329 333 334 334 334 335 332 326 331 334 332 329 320 317 321 328 21 57 62 71 85 96 105 113 119 124 130 135
154 151 149 152 207 297 302 307 313 322 329 333 333 331 332 334 335 335 332 330 329 332 333 332 338 337 337 336 335 336 340 354 69 118 103 91 96 102 107 115 118 123 130 135
166 168 169 186 217 267 305 318 325 333 337 338 336 336 333 330 331 336 336 333 333 333 333 336 337 340 342 347 351 356 1 14 37 87 105 109 109 113 120 123 122 127 132 136
175 179 186 196 193 284 319 300 316 333 345 340 336 336 336 336 335 336 325 327 335 335 337 337 340 345 350 355 356 0 8 17 31 62 88 96 102 107 114 120 124 130 134 137
182 184 186 181 187 206 218 255 349 1 359 345 339 340 342 338 334 332 333 337 341 343 344 344 347 350 357 358 1 3 8 15 24 45 71 85 92 103 114 125 134 135 136 143
186 190 192 188 183 181 177 144 81 350 353 349 339 338 341 342 339 339 341 342 345 347 350 351 352 355 360 1 3 8 12 14 24 33 45 63 77 88 102 115 124 124 133 141
193 187 173 162 161 161 151 133 124 116 41 22 351 343 347 348 348 348 350 350 351 353 355 355 356 357 0 3 6 11 13 14 17 23 28 34 44 56 67 82 89 90 107 123